Time,TemperatureF,DewpointF,PressureIn,WindDirection,WindDirectionDegrees,WindSpeedMPH,WindSpeedGustMPH,Humidity,HourlyPrecipIn,Conditions,Clouds,dailyrainin,SoftwareType,DateUTC
2013-02-27 00:03:00,34.4,33.0,29.95,ENE,77,8.0,13.0,93,0.05,,,0.00,weatherlink.com 1.10,2013-02-27 05:03:00,
2013-02-27 00:18:00,34.3,33.0,29.96,NE,40,5.0,11.0,94,0.05,,,0.03,weatherlink.com 1.10,2013-02-27 05:18:00,
2013-02-27 00:33:00,34.3,33.0,29.95,ENE,59,5.0,9.0,94,0.07,,,0.06,weatherlink.com 1.10,2013-02-27 05:33:00,
2013-02-27 00:48:00,34.3,33.0,29.96,NNE,33,2.0,7.0,94,0.11,,,0.11,weatherlink.com 1.10,2013-02-27 05:48:00,
2013-02-27 01:03:00,34.4,33.0,29.95,NNE,21,2.0,6.0,95,0.16,,,0.16,weatherlink.com 1.10,2013-02-27 06:03:00,
2013-02-27 01:18:00,34.4,33.0,29.94,NE,56,2.0,8.0,95,0.19,,,0.22,weatherlink.com 1.10,2013-02-27 06:18:00,
2013-02-27 01:34:00,34.5,33.0,29.92,NE,51,3.0,8.0,95,0.20,,,0.26,weatherlink.com 1.10,2013-02-27 06:34:00,
2013-02-27 01:49:00,34.8,34.0,29.92,NNE,20,5.0,7.0,95,0.15,,,0.26,weatherlink.com 1.10,2013-02-27 06:49:00,
2013-02-27 02:04:00,35.0,34.0,29.89,NE,43,6.0,10.0,95,0.11,,,0.27,weatherlink.com 1.10,2013-02-27 07:04:00,
2013-02-27 02:19:00,35.2,34.0,29.89,NNE,19,4.0,11.0,95,0.07,,,0.29,weatherlink.com 1.10,2013-02-27 07:19:00,
2013-02-27 02:34:00,35.3,34.0,29.87,ENE,65,3.0,8.0,95,0.07,,,0.33,weatherlink.com 1.10,2013-02-27 07:34:00,
2013-02-27 02:49:00,35.2,34.0,29.85,ENE,64,3.0,4.0,96,0.08,,,0.34,weatherlink.com 1.10,2013-02-27 07:49:00,
2013-02-27 03:04:00,35.2,34.0,29.85,NNE,15,4.0,5.0,96,0.11,,,0.38,weatherlink.com 1.10,2013-02-27 08:04:00,
2013-02-27 03:19:00,35.2,34.0,29.83,North,352,2.0,7.0,96,0.11,,,0.41,weatherlink.com 1.10,2013-02-27 08:19:00,
2013-02-27 03:34:00,35.2,34.0,29.82,NNE,13,3.0,7.0,96,0.10,,,0.43,weatherlink.com 1.10,2013-02-27 08:34:00,
2013-02-27 03:49:00,35.3,34.0,29.82,NNE,19,4.0,6.0,96,0.12,,,0.46,weatherlink.com 1.10,2013-02-27 08:49:00,
2013-02-27 04:04:00,35.5,35.0,29.80,North,9,4.0,5.0,97,0.12,,,0.50,weatherlink.com 1.10,2013-02-27 09:04:00,
2013-02-27 04:19:00,35.5,35.0,29.79,NNE,26,3.0,6.0,97,0.12,,,0.53,weatherlink.com 1.10,2013-02-27 09:19:00,
2013-02-27 04:34:00,35.7,35.0,29.79,North,349,3.0,6.0,97,0.13,,,0.56,weatherlink.com 1.10,2013-02-27 09:34:00,
2013-02-27 04:49:00,35.8,35.0,29.79,North,4,2.0,4.0,97,0.13,,,0.59,weatherlink.com 1.10,2013-02-27 09:49:00,
2013-02-27 05:04:00,36.0,35.0,29.77,NNE,16,3.0,5.0,97,0.11,,,0.61,weatherlink.com 1.10,2013-02-27 10:04:00,
2013-02-27 05:19:00,36.4,36.0,29.76,NNE,19,3.0,6.0,97,0.08,,,0.62,weatherlink.com 1.10,2013-02-27 10:19:00,
2013-02-27 05:34:00,36.9,36.0,29.74,NNW,333,2.0,6.0,97,0.09,,,0.65,weatherlink.com 1.10,2013-02-27 10:34:00,
2013-02-27 05:49:00,38.0,38.0,29.73,North,8,2.0,6.0,98,0.13,,,0.72,weatherlink.com 1.10,2013-02-27 10:49:00,
2013-02-27 06:04:00,38.5,38.0,29.72,NE,40,4.0,8.0,98,0.18,,,0.79,weatherlink.com 1.10,2013-02-27 11:04:00,
2013-02-27 06:19:00,39.3,39.0,29.71,North,9,4.0,7.0,97,0.19,,,0.81,weatherlink.com 1.10,2013-02-27 11:19:00,
2013-02-27 06:34:00,40.2,39.0,29.70,ENE,62,1.0,12.0,97,0.17,,,0.82,weatherlink.com 1.10,2013-02-27 11:34:00,
2013-02-27 06:49:00,40.6,40.0,29.70,North,354,1.0,9.0,97,0.11,,,0.83,weatherlink.com 1.10,2013-02-27 11:49:00,
2013-02-27 07:04:00,41.1,40.0,29.70,ENE,70,3.0,8.0,96,0.05,,,0.84,weatherlink.com 1.10,2013-02-27 12:04:00,
2013-02-27 07:19:00,41.2,40.0,29.69,NE,47,9.0,11.0,96,0.04,,,0.85,weatherlink.com 1.10,2013-02-27 12:19:00,
2013-02-27 07:35:00,41.3,40.0,29.68,NNE,22,5.0,8.0,96,0.06,,,0.88,weatherlink.com 1.10,2013-02-27 12:35:00,
2013-02-27 07:50:00,41.3,41.0,29.66,ENE,72,6.0,9.0,97,0.07,,,0.90,weatherlink.com 1.10,2013-02-27 12:50:00,
2013-02-27 08:05:00,42.0,41.0,29.66,NE,50,4.0,11.0,97,0.07,,,0.91,weatherlink.com 1.10,2013-02-27 13:05:00,
2013-02-27 08:20:00,42.5,42.0,29.65,East,81,4.0,11.0,97,0.07,,,0.92,weatherlink.com 1.10,2013-02-27 13:20:00,
2013-02-27 08:35:00,43.2,42.0,29.64,ENE,66,7.0,9.0,97,0.05,,,0.93,weatherlink.com 1.10,2013-02-27 13:35:00,
2013-02-27 08:50:00,44.3,43.0,29.64,North,6,11.0,19.0,96,0.03,,,0.93,weatherlink.com 1.10,2013-02-27 13:50:00,
2013-02-27 09:05:00,44.4,43.0,29.63,ENE,67,11.0,19.0,96,0.02,,,0.93,weatherlink.com 1.10,2013-02-27 14:05:00,
2013-02-27 09:20:00,44.4,43.0,29.62,NE,39,4.0,14.0,96,0.02,,,0.94,weatherlink.com 1.10,2013-02-27 14:20:00,
2013-02-27 09:35:00,44.4,43.0,29.62,NE,36,4.0,13.0,96,0.01,,,0.94,weatherlink.com 1.10,2013-02-27 14:35:00,
2013-02-27 09:50:00,44.4,43.0,29.61,WSW,257,2.0,14.0,96,0.03,,,0.96,weatherlink.com 1.10,2013-02-27 14:50:00,
2013-02-27 10:05:00,44.1,43.0,29.61,ENE,66,15.0,20.0,96,0.02,,,0.96,weatherlink.com 1.10,2013-02-27 15:05:00,
2013-02-27 10:20:00,43.9,43.0,29.61,ENE,70,1.0,16.0,96,0.02,,,0.96,weatherlink.com 1.10,2013-02-27 15:20:00,
2013-02-27 10:35:00,43.7,43.0,29.60,ENE,78,5.0,14.0,96,0.02,,,0.96,weatherlink.com 1.10,2013-02-27 15:35:00,
2013-02-27 10:50:00,43.5,42.0,29.59,North,8,9.0,13.0,95,0.00,,,0.96,weatherlink.com 1.10,2013-02-27 15:50:00,
2013-02-27 11:05:00,43.5,43.0,29.57,ENE,60,4.0,10.0,96,0.00,,,0.96,weatherlink.com 1.10,2013-02-27 16:05:00,
2013-02-27 11:20:00,43.3,42.0,29.59,NNE,22,1.0,14.0,96,0.00,,,0.96,weatherlink.com 1.10,2013-02-27 16:20:00,
2013-02-27 11:35:00,43.2,42.0,29.58,NNE,29,3.0,15.0,96,0.00,,,0.96,weatherlink.com 1.10,2013-02-27 16:35:00,
2013-02-27 11:50:00,43.1,42.0,29.57,NNE,25,0.0,13.0,96,0.00,,,0.96,weatherlink.com 1.10,2013-02-27 16:50:00,
2013-02-27 12:05:00,43.1,42.0,29.57,NE,51,6.0,19.0,96,0.01,,,0.97,weatherlink.com 1.10,2013-02-27 17:05:00,
2013-02-27 12:20:00,43.0,42.0,29.56,East,94,0.0,15.0,96,0.01,,,0.97,weatherlink.com 1.10,2013-02-27 17:20:00,
2013-02-27 12:35:00,42.9,42.0,29.55,ENE,75,3.0,9.0,97,0.01,,,0.97,weatherlink.com 1.10,2013-02-27 17:35:00,
2013-02-27 12:50:00,42.8,42.0,29.54,East,89,2.0,10.0,96,0.00,,,0.97,weatherlink.com 1.10,2013-02-27 17:50:00,
2013-02-27 13:05:00,42.8,42.0,29.54,NE,46,1.0,11.0,96,0.00,,,0.97,weatherlink.com 1.10,2013-02-27 18:05:00,
2013-02-27 13:20:00,42.7,42.0,29.55,ENE,58,4.0,8.0,97,0.00,,,0.97,weatherlink.com 1.10,2013-02-27 18:20:00,
2013-02-27 13:35:00,42.8,42.0,29.55,ENE,67,5.0,7.0,97,0.00,,,0.97,weatherlink.com 1.10,2013-02-27 18:35:00,
2013-02-27 13:50:00,42.9,42.0,29.54,East,83,3.0,6.0,97,0.00,,,0.97,weatherlink.com 1.10,2013-02-27 18:50:00,
2013-02-27 14:05:00,42.9,42.0,29.54,NE,47,3.0,7.0,97,0.00,,,0.97,weatherlink.com 1.10,2013-02-27 19:05:00,
2013-02-27 14:20:00,43.0,43.0,29.54,North,358,0.0,4.0,98,0.00,,,0.97,weatherlink.com 1.10,2013-02-27 19:20:00,
2013-02-27 14:35:00,43.2,43.0,29.55,ENE,77,0.0,2.0,98,0.01,,,0.98,weatherlink.com 1.10,2013-02-27 19:35:00,
2013-02-27 14:50:00,43.3,43.0,29.55,North,9,0.0,2.0,98,0.01,,,0.98,weatherlink.com 1.10,2013-02-27 19:50:00,
2013-02-27 15:05:00,43.2,43.0,29.55,ENE,68,1.0,3.0,98,0.02,,,0.99,weatherlink.com 1.10,2013-02-27 20:05:00,
2013-02-27 15:20:00,43.3,43.0,29.55,ENE,58,0.0,1.0,98,0.02,,,0.99,weatherlink.com 1.10,2013-02-27 20:20:00,
2013-02-27 15:35:00,43.4,43.0,29.56,ENE,78,0.0,1.0,98,0.01,,,0.99,weatherlink.com 1.10,2013-02-27 20:35:00,
2013-02-27 15:50:00,43.5,43.0,29.56,South,183,0.0,1.0,98,0.01,,,0.99,weatherlink.com 1.10,2013-02-27 20:50:00,
2013-02-27 16:05:00,43.5,43.0,29.57,WSW,249,1.0,2.0,98,0.00,,,0.99,weatherlink.com 1.10,2013-02-27 21:05:00,
2013-02-27 16:20:00,43.6,43.0,29.57,West,273,0.0,2.0,98,0.00,,,0.99,weatherlink.com 1.10,2013-02-27 21:20:00,
2013-02-27 16:35:00,43.6,43.0,29.58,South,174,0.0,2.0,98,0.00,,,0.99,weatherlink.com 1.10,2013-02-27 21:35:00,
2013-02-27 16:50:00,43.6,43.0,29.58,South,169,0.0,2.0,98,0.00,,,0.99,weatherlink.com 1.10,2013-02-27 21:50:00,
2013-02-27 17:05:00,43.7,43.0,29.59,WNW,283,1.0,1.0,98,0.00,,,0.99,weatherlink.com 1.10,2013-02-27 22:05:00,
2013-02-27 17:20:00,43.7,43.0,29.59,West,276,0.0,2.0,98,0.00,,,0.99,weatherlink.com 1.10,2013-02-27 22:20:00,
2013-02-27 17:35:00,43.6,43.0,29.60,West,270,0.0,1.0,98,0.00,,,0.99,weatherlink.com 1.10,2013-02-27 22:35:00,
2013-02-27 17:50:00,43.5,43.0,29.61,WSW,238,2.0,3.0,98,0.00,,,0.99,weatherlink.com 1.10,2013-02-27 22:50:00,
2013-02-27 18:05:00,43.3,43.0,29.62,West,260,0.0,4.0,98,0.00,,,0.99,weatherlink.com 1.10,2013-02-27 23:05:00,
2013-02-27 18:20:00,43.1,43.0,29.63,WSW,256,1.0,4.0,98,0.00,,,0.99,weatherlink.com 1.10,2013-02-27 23:20:00,
2013-02-27 18:35:00,42.4,41.0,29.64,West,267,1.0,9.0,95,0.00,,,0.99,weatherlink.com 1.10,2013-02-27 23:35:00,
2013-02-27 18:50:00,41.4,39.0,29.64,West,274,3.0,8.0,92,0.00,,,0.99,weatherlink.com 1.10,2013-02-27 23:50:00,
2013-02-27 19:05:00,40.6,39.0,29.65,West,259,2.0,4.0,93,0.00,,,0.99,weatherlink.com 1.10,2013-02-28 00:05:00,
2013-02-27 19:20:00,40.0,38.0,29.65,West,271,0.0,5.0,92,0.00,,,0.99,weatherlink.com 1.10,2013-02-28 00:20:00,
2013-02-27 19:35:00,39.3,37.0,29.65,SSE,153,0.0,1.0,92,0.00,,,0.99,weatherlink.com 1.10,2013-02-28 00:35:00,
2013-02-27 19:50:00,38.9,37.0,29.66,SSW,212,0.0,1.0,93,0.00,,,0.99,weatherlink.com 1.10,2013-02-28 00:50:00,
2013-02-27 20:05:00,38.8,37.0,29.66,SSE,149,1.0,3.0,93,0.00,,,0.99,weatherlink.com 1.10,2013-02-28 01:05:00,
2013-02-27 20:21:00,38.7,37.0,29.66,SSW,210,0.0,2.0,92,0.00,,,0.99,weatherlink.com 1.10,2013-02-28 01:21:00,
2013-02-27 20:36:00,38.1,36.0,29.67,South,169,1.0,2.0,93,0.00,,,0.99,weatherlink.com 1.10,2013-02-28 01:36:00,
2013-02-27 20:51:00,38.4,36.0,29.67,SE,142,1.0,3.0,92,0.00,,,0.99,weatherlink.com 1.10,2013-02-28 01:51:00,
2013-02-27 21:06:00,38.7,36.0,29.67,South,170,1.0,4.0,91,0.00,,,0.99,weatherlink.com 1.10,2013-02-28 02:06:00,
2013-02-27 21:21:00,38.6,36.0,29.68,West,269,4.0,5.0,91,0.00,,,0.99,weatherlink.com 1.10,2013-02-28 02:21:00,
2013-02-27 21:36:00,38.7,36.0,29.68,SW,235,0.0,3.0,90,0.00,,,0.99,weatherlink.com 1.10,2013-02-28 02:36:00,
2013-02-27 21:51:00,38.3,36.0,29.68,SSE,153,0.0,1.0,91,0.00,,,0.99,weatherlink.com 1.10,2013-02-28 02:51:00,
2013-02-27 22:06:00,38.0,36.0,29.68,SSW,201,0.0,2.0,92,0.00,,,0.99,weatherlink.com 1.10,2013-02-28 03:06:00,
2013-02-27 22:21:00,37.8,36.0,29.67,SSW,210,0.0,1.0,92,0.00,,,0.99,weatherlink.com 1.10,2013-02-28 03:21:00,
2013-02-27 22:36:00,38.2,36.0,29.67,West,274,0.0,2.0,91,0.00,,,0.99,weatherlink.com 1.10,2013-02-28 03:36:00,
2013-02-27 22:51:00,38.5,36.0,29.66,WNW,295,0.0,2.0,90,0.00,,,0.99,weatherlink.com 1.10,2013-02-28 03:51:00,
2013-02-27 23:06:00,39.1,36.0,29.66,West,276,1.0,5.0,89,0.00,,,0.99,weatherlink.com 1.10,2013-02-28 04:06:00,
2013-02-27 23:21:00,39.3,36.0,29.65,NW,325,2.0,4.0,89,0.00,,,0.99,weatherlink.com 1.10,2013-02-28 04:21:00,
2013-02-27 23:36:00,39.5,37.0,29.64,NW,319,2.0,-999.0,89,-99.99,,,0.99,weatherlink.com 1.10,2013-02-28 04:36:00,
2013-02-27 23:51:00,39.6,37.0,29.63,West,266,0.0,3.0,89,0.00,,,0.99,weatherlink.com 1.10,2013-02-28 04:51:00,